Location: Tauranga
(37.6860°S, 176.1670°E)
Time: 13:19:53
(UTC+13:00)

Daily predictions for brighter satellites

Satellite Brightness Start Highest point End
(mag) Time Altitude Azimuth Time Altitude Azimuth Time Altitude Azimuth
SJ-6B 3.9 20:56:42 10° SE 20:59:51 24° E 21:02:58 10° NNE
Cosmos 1408 2.6 20:56:32 10° S 21:00:22 78° E 21:04:06 10° N
SL-16 R/B 3.0 20:55:57 10° NNE 21:00:49 30° ENE 21:05:45 10° SE
CZ-3B R/B 3.4 20:59:45 10° WNW 21:01:19 44° SW 21:04:36 10° SE
Cosmos 1328 Rocket 4.4 20:57:55 10° NNE 21:01:53 33° E 21:05:57 10° SSE
Cosmos 1825 2.2 20:59:44 10° S 21:03:34 66° E 21:07:21 10° NNE
Cosmos 1869 3.9 21:00:48 10° NNE 21:04:32 37° E 21:08:17 10° SSE
Cosmos 1655 Rocket 4.2 20:58:57 10° N 21:05:19 83° W 21:11:42 10° S
HJ-1C 3.4 21:02:03 10° SSE 21:05:29 62° E 21:08:50 10° N
Cosmos 1271 Rocket 2.9 21:01:30 10° S 21:05:33 62° E 21:09:33 10° NNE
Cosmos 2360 Rocket 3.9 21:04:27 10° ENE 21:06:51 13° E 21:09:16 10° ESE
Cosmos 1666 Rocket 3.8 21:04:23 10° S 21:08:51 55° E 21:13:13 10° NNE
Tiangong 2 2.3 21:06:53 10° W 21:09:50 33° NNW 21:12:44 10° NE
Cosmos 1980 Rocket 2.8 21:04:20 10° NNW 21:10:00 66° WSW 21:15:43 10° SSE
Lacrosse 5 2.1 21:12:04 10° SW 21:17:12 62° SE 21:22:00 11° NE
Cosmos 2228 Rocket 4.2 21:13:52 10° NE 21:17:28 25° E 21:21:08 10° SE
Cosmos 1805 Rocket 4.1 21:13:53 10° SSW 21:18:14 61° W 21:22:31 10° N
MOS 1 4.4 21:14:07 10° SSE 21:19:56 90° ENE 21:25:40 10° NNW
Cosmos 2322 Rocket 2.6 21:14:48 10° N 21:20:03 40° ENE 21:25:22 10° SE
DELTA 2 R/B(2) 3.2 21:17:15 10° WNW 21:20:14 88° NNW 21:21:54 10° ESE
Cosmos 1741 Rocket 4.4 21:16:33 10° NNW 21:21:53 74° WSW 21:27:17 10° SSE
ADEOS Rocket 3.8 21:18:53 10° NE 21:23:36 29° ESE 21:28:18 10° S
CZ-2D R/B 4.0 21:24:58 10° S 21:28:54 58° WSW 21:32:45 10° NNW
USA 186 1.6 21:26:43 10° SSE 21:29:31 48° E 21:32:06 10° N
Cosmos 1515 Rocket 4.0 21:25:31 10° NNE 21:29:46 44° E 21:34:05 10° SSE
Cosmos 1939 Rocket 3.1 21:30:16 10° S 21:34:30 83° WSW 21:38:41 10° NNW
USA 32 4.5 21:32:34 10° NNW 21:37:47 67° W 21:43:05 10° S
NOAA 11 4.2 21:32:29 10° SSE 21:38:03 67° ENE 21:43:33 10° N
ARGOS 4.3 21:35:15 10° SE 21:39:30 23° E 21:42:01 17° NE
Meteor 2-10 Rocket 4.4 21:34:43 10° NNW 21:39:40 52° WSW 21:44:53 10° S
Cosmos 2227 4.2 21:35:24 10° SSW 21:41:09 81° ESE 21:46:04 14° NNE
Resurs 01 Rocket 2.5 21:39:14 10° SE 21:43:12 30° E 21:45:44 18° NNE
Cosmos 292 Rocket 4.3 21:39:13 10° SSW 21:43:57 58° WNW 21:48:39 10° N
Cosmos 1633 4.5 21:42:19 10° SE 21:44:25 15° ESE 21:45:03 14° E
Cosmos 2263 Rocket 2.6 21:39:47 10° SSW 21:45:18 49° ESE 21:49:11 19° NE
Aureole 3 Rocket 2.9 21:45:20 10° S 21:48:55 83° W 21:53:35 10° N
CZ-2C R/B 2.8 21:48:35 17° NNE 21:52:48 58° ESE 21:58:06 10° S
Cosmos 1151 Rocket 3.1 21:50:25 10° N 21:54:42 78° W 21:59:05 10° S
Resurs 1-3 3.8 21:52:00 10° SSE 21:56:22 51° E 21:59:43 16° N
Cosmos 2208 Rocket 4.1 21:59:53 10° SSW 22:05:08 75° WNW 22:09:01 19° N
Cosmos 2315 Rocket 4.1 22:00:02 10° S 22:06:26 83° W 22:12:14 12° N
CZ-4C R/B 4.4 22:06:46 10° S 22:09:14 13° SSE 22:11:33 10° ESE
H-2A R/B 3.3 22:08:17 10° NW 22:11:44 31° NNE 22:24:23 10° E
Cosmos 1356 4.2 22:12:25 34° E 22:12:25 34° E 22:15:35 10° SSE
Cosmos 540 Rocket 4.0 22:12:12 10° S 22:17:13 45° ESE 22:19:09 31° ENE
ATLAS 3B R/B 3.8 22:18:32 23° ENE 22:18:32 23° ENE 22:23:53 10° ESE
USA 238 DEB 4.1 22:15:41 10° N 22:22:38 46° ENE 22:29:31 10° SE
USA 238 4.1 22:15:48 10° N 22:22:44 46° ENE 22:29:36 10° SE
BREEZE-M DEB (TANK) 3.7 22:24:14 10° W 22:27:58 30° SSW 22:29:45 13° SE
Cosmos 2237 4.3 22:25:19 24° N 22:28:42 55° ENE 22:34:18 10° SSE
Cosmos 1862 3.7 22:25:19 10° SSW 22:29:21 60° W 22:31:07 30° NNW
Cosmos 1763 Rocket 4.0 22:26:27 10° SSW 22:31:34 53° WNW 22:34:28 24° N
Atlas Centaur 2 3.3 22:24:23 10° WNW 22:32:34 52° N 22:36:40 30° ENE
Cosmos 1869 Rocket 3.7 22:31:37 10° S 22:35:57 53° E 22:36:30 49° ENE
ERBS 4.0 22:33:41 10° SSW 22:36:38 24° SE 22:37:00 24° SE
Nimbus 7 Rocket 4.4 22:38:53 38° NNE 22:41:17 73° ESE 22:47:17 10° S
Cosmos 1486 Rocket 4.1 22:36:54 12° NNW 22:41:48 77° WSW 22:47:07 10° SSE
H-2A R/B 1.8 22:38:20 10° SSE 22:43:26 87° E 22:45:39 34° NNW
SL-08 R/B 4.4 22:39:25 21° N 22:43:39 85° W 22:49:53 10° S
SL-16 R/B 3.8 22:39:37 10° NW 22:44:47 35° WSW 22:50:00 10° S
ERS-1 Rocket 4.1 22:40:27 10° SE 22:44:02 27° E 22:44:02 27° E
Mayak 0.2 22:46:27 25° ESE 22:46:27 25° ESE 22:49:41 10° SSE
Cosmos 2360 Rocket 2.3 22:44:23 10° NNW 22:50:04 76° WSW 22:55:49 10° SSE
Cosmos 2333 4.4 22:49:27 46° NE 22:50:04 48° ENE 22:55:39 10° SE
Cosmos 1707 Rocket 3.4 22:55:32 75° ENE 22:55:40 76° E 23:00:04 10° S
Meteor 1-26 Rocket 4.2 22:55:59 44° N 22:57:56 79° E 23:03:44 10° SSE
Cosmos 1733 Rocket 4.5 22:54:39 10° SSE 22:57:44 26° ESE 22:57:44 26° ESE
Cosmos 1933 4.3 22:58:17 32° NW 22:59:42 46° W 23:03:44 10° S
Lacrosse 5 3.7 22:56:08 10° WSW 22:59:43 19° WNW 23:01:12 17° NW
NOSS 2-1 (E) 4.4 22:52:28 10° SSW 23:00:02 78° SE 23:01:31 53° NE
Cosmos 1242 Rocket 4.1 22:56:48 10° SSW 23:00:09 30° W 23:00:53 28° WNW
Helios 1B rocket 2.3 23:00:45 84° ESE 23:00:45 84° ESE 23:04:54 10° SSW
Cosmos 1844 Rocket 3.2 22:56:19 10° S 23:01:44 44° ESE 23:02:38 41° E
Cosmos 841 Rocket 4.3 22:57:21 10° SSW 23:02:24 44° WNW 23:04:13 32° NNW
COSMOS 2428 3.0 23:03:03 48° E 23:03:03 48° E 23:08:22 10° SE
Cosmos 2322 Rocket 4.2 22:59:26 10° WNW 23:04:12 27° WSW 23:09:01 10° S
NOSS 3-2 (C) 4.3 23:03:17 41° NNE 23:05:04 47° ENE 23:12:28 10° SE
Cosmos 1745 Rocket 4.2 23:05:15 29° NNW 23:08:43 71° W 23:15:07 10° S
Cosmos 968 Rocket 3.3 23:08:48 70° NE 23:09:01 71° ENE 23:14:16 10° SSE
ADEOS Rocket 4.1 23:05:50 19° NNW 23:09:02 32° W 23:14:00 10° SW
SPOT 1/Viking Rocket 4.3 23:05:21 10° SSE 23:09:30 38° ESE 23:09:30 38° ESE
Cosmos 1386 Rocket 4.5 23:09:16 38° NNW 23:11:48 78° W 23:17:58 10° S
Cosmos 1709 Rocket 4.0 23:15:11 58° NE 23:16:13 68° E 23:22:28 10° SSE
Terra 3.6 23:14:47 10° SE 23:16:50 20° ESE 23:16:50 20° ESE
Cosmos 1633 4.3 23:16:12 10° SSW 23:19:15 27° W 23:19:15 27° W
Resurs 01 Rocket 3.9 23:15:59 10° SSW 23:19:29 23° WSW 23:22:57 10° WNW
ARGOS 4.3 23:14:47 10° S 23:19:51 41° WSW 23:23:31 17° NW
Cosmos 2322 4.0 23:18:12 27° NW 23:21:17 64° WSW 23:26:58 10° SSE
MetOp-B 4.3 23:19:11 10° S 23:24:35 68° WSW 23:25:59 48° NW
Meteor 1-25 Rocket 4.2 23:19:10 10° S 23:25:05 83° W 23:25:57 66° N
Cosmos 1606 3.7 23:25:39 48° SW 23:25:39 48° SW 23:29:04 10° S
CENTAUR R/B 3.6 23:28:52 36° E 23:28:52 36° E 23:34:17 10° SE
Cosmos 2263 Rocket 4.1 23:24:40 10° SW 23:28:47 21° W 23:30:54 17° NW
Meteor 2-6 Rocket 4.4 23:33:41 54° ESE 23:33:41 54° ESE 23:38:23 10° SSE
Cosmos 2333 Rocket 2.2 23:35:00 68° E 23:35:00 68° E 23:40:23 10° SSE
Cosmos 2219 Rocket 2.1 23:36:24 77° ESE 23:36:24 77° ESE 23:41:53 10° SSE
Cosmos 2278 Rocket 3.6 23:33:21 10° S 23:38:03 26° ESE 23:38:32 25° ESE
Cosmos 2181 Rocket 4.0 23:33:20 10° S 23:39:33 65° E 23:39:48 64° E
Meteor 2-21 4.4 23:43:30 69° E 23:43:30 69° E 23:49:29 10° SSE
SeaSat 1 2.6 23:39:25 10° SSE 23:44:00 73° S 23:44:00 73° S
Cosmos 2237 Rocket 3.4 23:51:01 31° ESE 23:51:01 31° ESE 23:54:22 10° SE
Cosmos 1340 Rocket 4.4 23:50:56 33° S 23:50:56 33° S 23:53:16 10° S
